[Iaude] MPEC R118: 2016 RZ19 [a=1.42,e=0.20,i=22.2,H=24.4]

mpec at mpc.eps.harvard.edu mpec at mpc.eps.harvard.edu
Sat Sep 10 22:01:16 EDT 2016


M.P.E.C. 2016-R118                               Issued 2016 Sept. 11, 01:57 UT
 
     The Minor Planet Electronic Circulars contain information on unusual
         minor planets and routine data on comets.  They are published
    on behalf of Division F of the International Astronomical Union by the
          Minor Planet Center, Smithsonian Astrophysical Observatory,
                          Cambridge, MA 02138, U.S.A.

             Prepared using the Tamkin Foundation Computer Network

                              MPC at CFA.HARVARD.EDU
            URL http://www.minorplanetcenter.net/    ISSN 1523-6714


                                   2016 RZ19
 
Observations:
     K16R19Z* C2016 09 07.38314 22 33 41.700-26 28 47.19         21.6 wLER118F51
     K16R19Z  C2016 09 07.39348 22 33 43.005-26 29 56.48         21.4 wLER118F51
     K16R19Z  C2016 09 07.40380 22 33 44.295-26 31 05.94         22.2 wLER118F51
     K16R19Z  C2016 09 07.41413 22 33 45.620-26 32 15.10         22.1 wLER118F51
     K16R19Z |C2016 09 08.19676 22 35 41.79 -27 57 04.1          22.2 VuER118807
     K16R19Z |C2016 09 08.20485 22 35 42.83 -27 57 55.7          21.9 VuER118807
     K16R19Z |C2016 09 08.21277 22 35 43.85 -27 58 46.2          22.1 VuER118807
     K16R19Z _C2016 09 08.35317122 36 06.776-28 14 21.51         21.9 RtER118568
     K16R19Z _C2016 09 08.35420522 36 06.907-28 14 28.07         21.7 RtER118568
     K16R19Z _C2016 09 08.35524122 36 07.042-28 14 34.74         21.7 RtER118568
     K16R19Z |C2016 09 09.07562 22 37 54.64 -29 28 39.9          21.0 VuER118807
     K16R19Z |C2016 09 09.08355 22 37 55.69 -29 29 29.4          21.9 VuER118807
     K16R19Z |C2016 09 09.09112 22 37 56.65 -29 30 16.1          22.0 VuER118807
     K16R19Z |C2016 09 10.11920 22 40 27.93 -31 11 37.1          21.5 VuER118807
     K16R19Z |C2016 09 10.12889 22 40 29.19 -31 12 33.1          21.5 VuER118807
     K16R19Z |C2016 09 10.13860 22 40 30.43 -31 13 29.1          21.8 VuER118807
 
Observer details:
568 Mauna Kea.  Observers R. J. Wainscoat, P. Forshay.  Measurers M. Micheli,
    R. J. Wainscoat.  3.6-m Canada-France-Hawaii Telescope + CCD.
807 Cerro Tololo.  Observers T. Linder, R. Holmes.  0.61-m f/6.5 astrograph
    + CCD.
F51 Pan-STARRS 1, Haleakala.  Observers B. Gibson, T. Goggia, N. Primak,
    A. Schultz, M. Willman.  Measurers P. Veres, K. Chambers, S. Chastel,
    L. Denneau, H. Flewelling, M. Huber, E. Lilly, E. Magnier, R. Wainscoat,
    C. Waters, R. Weryk.  1.8-m Ritchey-Chretien + CCD.
 
Orbital elements:
2016 RZ19                                                Earth MOID = 0.1452 AU
Epoch 2016 July 31.0 TT = JDT 2457600.5                 MPC
M 355.72991              (2000.0)            P               Q
n   0.58035009     Peri.  159.15359     +0.73423471     +0.66302651
a   1.4234515      Node   157.23762     -0.66396978     +0.74613188
e   0.1955831      Incl.   22.15816     -0.14157515     -0.06068821
P   1.70           H   24.4           G   0.15           U   7
Residuals in seconds of arc
160907 F51  0.1+  0.1-    160908 807  0.1+  0.1+    160909 807  0.1-  0.2-
160907 F51  0.0   0.1+    160908 568  0.1+  0.0     160910 807  0.3-  0.1+
160907 F51  0.2-  0.1-    160908 568  0.1+  0.0     160910 807  0.0   0.0
160907 F51  0.1+  0.0     160908 568  0.1+  0.0     160910 807  0.1+  0.1-
160908 807  0.0   0.0     160909 807  0.0   0.4+
160908 807  0.1+  0.1+    160909 807  0.2+  0.2-

Ephemeris:
2016 RZ19                a,e,i = 1.42, 0.20, 22                  q = 1.1450
Date    TT    R. A. (2000) Decl.     Delta      r     Elong.  Phase     V
2016 08 12    21 30 04.6 +31 37 12   0.1813  1.1455   133.4    40.0    22.6
...
2016 08 27    22 05 11.4 -00 01 50   0.1455  1.1535   169.0     9.6    21.2
...
2016 09 04    22 25 13.5 -19 36 22   0.1572  1.1616   165.9    12.2    21.4
...
2016 09 10    22 40 09.2 -31 00 07   0.1794  1.1693   152.8    23.2    22.1
2016 09 11    22 42 36.2 -32 33 27   0.1839  1.1707   150.8    24.8    22.2
2016 09 12    22 45 02.2 -34 01 07   0.1887  1.1722   149.0    26.2    22.3
...
2016 09 18    22 59 12.9 -40 59 16   0.2206  1.1817   139.7    33.4    22.9
...
2016 09 26    23 16 39.2 -46 31 08   0.2696  1.1962   130.8    39.4    23.5
...
2016 10 11    23 44 57.6 -49 58 07   0.3711  1.2283   120.4    44.5    24.4

A. U. Tomatic                (C) Copyright 2016 MPC           M.P.E.C. 2016-R118




More information about the Iaude mailing list